Regional Weather Roundup
Issued by NWS Newport/Morehead, NC

Current Version | Previous Version | Text Only | Print | Product List | Glossary On
Versions: 1 2 3 4 5 6 7 8 9 10 11 12 13 14 15 16 17 18 19 20 21 22 23 24 25 26 27 28 29 30 31 32 33 34 35 36 37 38 39 40 41 42 43 44 45 46 47 48 49 50
000
ASUS42 KMHX 220922
RWRMHX
WEATHER ROUNDUP FOR EASTERN NORTH CAROLINA
NATIONAL WEATHER SERVICE NEWPORT/MOREHEAD CITY NC
400 AM EST SAT NOV 22 2014

NOTE: "FAIR" INDICATES FEW OR NO CLOUDS BELOW 12,000 FEET
WITH NO SIGNIFICANT WEATHER AND/OR OBSTRUCTIONS TO VISIBILITY

NCZ015>017-031-032-045>047-102-103-221000-
NORTH COAST

CITY           SKY/WX    TMP DP  RH WIND       PRES   REMARKS
EDENTON          N/A     24  20  85 CALM      30.56S
ELIZABETH CITY PTCLDY    27  18  69 CALM      30.56F
KITTY HAWK     SUNNY     36  30  78 CALM      30.53F
MANTEO         CLEAR     33  27  79 NW3       30.55S

$$

NCZ045>047-081-094-103-104-221000-
CENTRAL COAST

CITY           SKY/WX    TMP DP  RH WIND       PRES   REMARKS
FRISCO         CLEAR     40  30  67 N6        30.53F
SWANQUARTER      N/A     28 N/A N/A N1        30.50F

$$

NCZ095-097-098-100-101-221000-
SOUTHERN COAST

CITY           SKY/WX    TMP DP  RH WIND       PRES   REMARKS
BEAUFORT       CLEAR     34  24  67 N6        30.54F
CEDAR ISLAND     N/A     41 N/A N/A VRB14     30.56S
JACKSONVILLE   CLEAR     30  22  72 CALM      30.55S
PINEY ISLAND   SUNNY     43  26  51 NE12      30.53F
WILMINGTON     CLEAR     30  23  75 NE7       30.53F


$$

NCZ011>013-027>030-043-044-078>080-089-090>093-098-221000-
COASTAL PLAIN

CITY           SKY/WX    TMP DP  RH WIND       PRES   REMARKS
AHOSKIE        CLEAR     20  17  87 CALM      30.56F
CLINTON        PTCLDY    31  20  62 CALM      30.55S
ELIZABETHTOWN  PTCLDY    29  18  65 CALM      30.54F
GOLDSBORO      CLEAR     26  20  75 CALM      30.54S
GREENVILLE     CLEAR     23  23 100 CALM      30.55F
HAVELOCK       CLEAR     32  25  75 CALM      30.56F
KENANSVILLE    CLEAR     23  20  87 CALM      30.56S
KINSTON        CLEAR     24  20  85 CALM      30.56S
NEW BERN       CLEAR     30  23  75 CALM      30.57S
RICHLANDS      CLEAR     21  18  86 CALM      30.55F
ROCKY MOUNT    CLEAR     23  16  74 CALM      30.56S
WASHINGTON     CLEAR     24  20  82 CALM      30.56F
WHITEVILLE     CLEAR     30  19  64 CALM      30.53S

$$

AMZ130-135-150-152-154-156-158-170-250-252-270-ANZ085-086-088-633-658-670-221000-
MARINE OBSERVATIONS

STATION/POSITION TIME  TEMP    WIND        PRES    WAVE   SWELL
                       AIR SEA DIR/SP/G            HT/PER HT/PER
                 (UTC) (F)     (DEG/KT/KT) (MB)    (FT/S) (FT/S)
CHESAPEAKE LIGHT 0900   40      20/  8/  9 1035.2
64 E VA BEACH    0900   42 60   20/  8/ 12 1033.8    3/ 6   3/ 6
DUCK             0900   39 54  320/  9/ 10 1033.6
2 E DUCK         0900      55                N/A     3/ 6
10 NE DUCK       0900      58                N/A     3/ 6
OREGON INLET     0900   42 52   20/  5/  6 1034.2
13E OREGON INLT  0900      61                N/A     4/ 7
HATTERAS CG      0900   44 50   10/ 11/ 13 1034.1
DIAMOND BUOY     0900   48      10/ 10/ 16 1033.4    5/10   3/10
17 S OCRACOKE    NOT AVBL
CAPE LOOKOUT     0900   42      10/ 11/ 13 1033.4
BEAUFORT LAB     0900   38 51   30/  4/  7 1033.1
30 SE NEW RIVER  0900   50 68   50/ 16/ 19 1032.7    3/ 5   2/ 8
5 SE WRIGHTSVLE  0900   45 59   70/ 12/ 16 1033.4
225 S CAPE HAT   0814   61 73   40/ 14/ 17 1030.2    5/ 7   3/ 7
41 SE CHARLESTON 0900   60 76   50/ 16/ 19 1030.7    4/ 6   2/ 8

$$



USA.gov is the U.S. government's official web portal to all federal, state and local government web resources and services.